Regional Weather Roundup
Issued by NWS

Home | Current Version | Previous Version | Text Only | Print | Product List | Glossary Off
Versions: 1 2 3 4 5 6 7 8 9 10 11 12 13 14 15 16 17 18 19 20 21 22 23 24 25 26 27 28 29 30 31 32 33 34 35 36 37 38 39 40 41 42 43 44 45 46 47 48 49 50

000
ASUS43 KOAX 240702
RWRNE

WEATHER ROUNDUP FOR NEBRASKA
NATIONAL WEATHER SERVICE OMAHA NE
100 AM CST MON NOV 24 2014

NOTES: SATELLITE DATA IS BEING USED TO AUGMENT CLOUD COVER ABOVE
       12000 FEET.
       "FAIR" INDICATES FEW OR NO CLOUDS BELOW 12,000 FEET WITH NO
       SIGNIFICANT WEATHER AND/OR OBSTRUCTIONS TO VISIBILITY.

  * THESE STATIONS DO NOT REPORT WEATHER SUCH AS RAIN...SNOW OR FOG.

NEZ001>004-019>022-054>056-240800-
NEBRASKA PANHANDLE

CITY           SKY/WX    TMP DP  RH WIND       PRES   REMARKS
SCOTTSBLUFF    CLEAR     27  17  66 W14       29.80F WCI  16
ALLIANCE       PTCLDY    26  18  71 W16       29.74F WCI  14
CHADRON        MOCLDY    32  20  61 W14       29.78S WCI  22
KIMBALL        CLEAR     24  16  69 W12       29.80S WCI  13
SIDNEY         CLEAR     26  15  63 NW13      29.80S WCI  15
$$

NEZ057>060-069>072-079>082-240800-
SOUTHWEST NEBRASKA

CITY           SKY/WX    TMP DP  RH WIND       PRES   REMARKS
NORTH PLATTE   CLEAR     30  19  63 W14       29.70F WCI  19
IMPERIAL       CLEAR     32  18  56 W15       29.77S WCI  22
LEXINGTON      CLOUDY    35  23  60 NW17G23   29.68S WCI  25
MCCOOK         PTCLDY    31  16  54 W17G25    29.74F WCI  19
$$

NEZ005>010-023>029-035>040-094-240800-
NORTH CENTRAL NEBRASKA

CITY           SKY/WX    TMP DP  RH WIND       PRES   REMARKS
VALENTINE      MOCLDY    29  21  72 N9G21     29.67S WCI  20
AINSWORTH      PTCLDY    28  20  70 NW20      29.65S WCI  15
BROKEN BOW     CLOUDY    34  22  61 NW17G25   29.64F WCI  23
ORD            PTCLDY    31  19  61 NW22G31   29.62F WCI  18
$$

NEZ041-046>049-061>064-073>077-083>087-240800-
SOUTH CENTRAL NEBRASKA

CITY           SKY/WX    TMP DP  RH WIND       PRES   REMARKS
HASTINGS       CLOUDY    36  24  62 NW17      29.62F WCI  26
KEARNEY *      CLOUDY    34  21  60 W12       29.66S WCI  25
YORK           CLEAR     32  23  69 NW20G29   29.59F WCI  20
$$

NEZ011>018-030>034-042>045-240800-
NORTHEAST NEBRASKA

CITY           SKY/WX    TMP DP  RH WIND       PRES   REMARKS
NORFOLK        CLOUDY    30  21  69 NW23G36   29.55F WCI  17
BLAIR          CLOUDY    32  22  65 NW17G31   29.51F WCI  21
COLUMBUS *     CLOUDY    30  18  59 NW25G37   29.58S WCI  16
FREMONT        PTCLDY    31  22  68 NW17G25   29.55F WCI  19
TEKAMAH        CLOUDY    32  22  66 NW21      29.53F WCI  20
$$

NEZ050>053-065>068-078-088>093-240800-
SOUTHEAST NEBRASKA

CITY           SKY/WX    TMP DP  RH WIND       PRES   REMARKS
LINCOLN        CLOUDY    35  23  61 NW12      29.57F WCI  27
OMAHA EPPLEY   CLOUDY    33  23  66 NW17G29   29.53F WCI  22
FALLS CITY     MOCLDY    35  24  64 NW26G35   29.54R WCI  22
NEBRASKA CITY  MOCLDY    32  19  60 NW21G28   29.53S WCI  19
$$

NEZ044-045-051>053-067-240800-
OMAHA AREA

CITY           SKY/WX    TMP DP  RH WIND       PRES   REMARKS
OMAHA EPPLEY   CLOUDY    33  23  66 NW17G29   29.53F WCI  22
BLAIR          CLOUDY    32  22  65 NW17G31   29.51F WCI  21
FREMONT        PTCLDY    31  22  68 NW17G25   29.55F WCI  19
OFFUTT AFB     CLOUDY    33  22  63 NW17G25   29.52S WCI  22
WAHOO          CLOUDY    32  21  64 NW17G24   29.55F WCI  21
$$


USA.gov is the U.S. government's official web portal to all federal, state and local government web resources and services.